This demonstration page uses our WeatherBlox Daily Observations layout. Learn more.

Left ArrowRight Arrow

39.92423, -83.80882

Hourly Observations for August 13, 2020

Temp ( °F °C ) Dew Point ( °F °C ) Humidity (%) Winds ( mph kmh ) Pressure ( in mb ) Visibility ( mi km ) Precip ( " mm )
12:56 am 00:56 Clear 66 18.9 66 18.9 100 100 ENE 3 6 30.08 1019 10 16.0934 0 0
1:56 am 01:56 Clear 65 18.3 65 18.3 100 100 NE 3 6 30.08 1019 10 16.0934 0 0
2:56 am 02:56 Clear 64 17.8 64 17.8 100 100 ENE 6 9 30.07 1018 10 16.0934 0 0
3:56 am 03:56 Clear 64 17.8 64 17.8 100 100 NE 6 9 30.08 1019 10 16.0934 0 0
4:56 am 04:56 Clear 64 17.8 64 17.8 100 100 NE 3 6 30.07 1018 10 16.0934 0 0
5:56 am 05:56 Clear 62 16.7 62 16.7 100 100 E 6 9 30.07 1018 10 16.0934 0 0
6:56 am 06:56 Sunny 63 17.2 63 17.2 100 100 ENE 3 6 30.09 1019 10 16.0934 0 0
7:56 am 07:56 Sunny 66 18.9 65 18.3 96 96 E 3 6 30.09 1019 10 16.0934 0 0
8:56 am 08:56 Sunny 71 21.7 66 18.9 84 84 ENE 7 11 30.1 1019 10 16.0934 0 0
9:56 am 09:56 Sunny 76 24.4 66 18.9 72 72 NE 7 11 30.09 1019 10 16.0934 0 0
10:56 am 10:56 Sunny 80 26.7 67 19.4 64 64 ENE 7 11 30.09 1019 10 16.0934 0 0
11:56 am 11:56 Mostly Cloudy 81 27.2 66 18.9 61 61 E 6 9 30.08 1019 10 16.0934 0 0
12:56 pm 12:56 Sunny 83 28.3 67 19.4 59 59 E 6 9 30.08 1019 10 16.0934 0 0
1:56 pm 13:56 Sunny 83 28.3 67 19.4 59 59 VRB 5 7 30.07 1018 10 16.0934 0 0
2:56 pm 14:56 Mostly Sunny 84 28.9 67 19.4 57 57 E 5 7 30.05 1018 9 14.48406 0 0
3:56 pm 15:56 Mostly Sunny 85 29.4 67 19.4 55 55 N 6 9 30.02 1017 10 16.0934 0 0
4:56 pm 16:56 Mostly Cloudy 84 28.9 65 18.3 53 53 NE 6 9 30.01 1016 10 16.0934 0 0
5:56 pm 17:56 Sunny 85 29.4 66 18.9 53 53 N 7 11 30 1016 10 16.0934 0 0
6:56 pm 18:56 Sunny 81 27.2 67 19.4 62 62 N 8 13 30 1016 10 16.0934 0 0
7:56 pm 19:56 Sunny 80 26.7 65 18.3 60 60 N 8 13 30.01 1016 10 16.0934 0 0
8:56 pm 20:56 Clear 77 25 65 18.3 66 66 NNW 5 7 30.02 1017 10 16.0934 0 0
9:56 pm 21:56 Clear 72 22.2 66 18.9 82 82 NNE 3 6 30.03 1017 10 16.0934 0 0
10:56 pm 22:56 Clear 72 22.2 63 17.2 73 73 N 6 9 30.02 1017 10 16.0934 0 0
11:56 pm 23:56 Clear 70 21.1 65 18.3 84 84 NNE 3 6 30.01 1016 10 16.0934 0 0

Powered by AerisWeather